Time,TemperatureF,DewpointF,PressureIn,WindDirection,WindDirectionDegrees,WindSpeedMPH,WindSpeedGustMPH,Humidity,HourlyPrecipIn,Conditions,Clouds,dailyrainin,SoftwareType,DateUTC
2013-02-28 00:02:00,31.0,27.0,-100.00,East,80,2.0,9.0,83,0.00,,,-99.99,,2013-02-28 05:02:00,
2013-02-28 00:11:00,31.0,27.0,-100.00,ENE,75,1.0,6.0,85,0.00,,,-99.99,,2013-02-28 05:11:00,
2013-02-28 00:22:00,31.0,26.0,-100.00,ESE,115,4.0,12.0,83,0.00,,,-99.99,,2013-02-28 05:22:00,
2013-02-28 00:32:00,31.0,27.0,-100.00,East,95,2.0,6.0,84,0.00,,,-99.99,,2013-02-28 05:32:00,
2013-02-28 00:42:00,32.0,26.0,-100.00,ESE,110,4.0,10.0,75,0.00,,,-99.99,,2013-02-28 05:42:00,
2013-02-28 00:52:00,32.0,26.0,-100.00,East,90,4.0,11.0,79,0.00,,,-99.99,,2013-02-28 05:52:00,
2013-02-28 01:01:00,31.0,26.0,-100.00,East,90,6.0,10.0,81,0.00,,,-99.99,,2013-02-28 06:01:00,
2013-02-28 01:11:00,31.0,25.0,-100.00,East,80,5.0,12.0,79,0.00,,,-99.99,,2013-02-28 06:11:00,
2013-02-28 01:22:00,31.0,26.0,-100.00,ESE,110,6.0,12.0,79,0.00,,,-99.99,,2013-02-28 06:22:00,
2013-02-28 01:32:00,31.0,25.0,-100.00,East,100,4.0,9.0,79,0.00,,,-99.99,,2013-02-28 06:32:00,
2013-02-28 01:42:00,31.0,25.0,-100.00,East,95,4.0,11.0,77,0.00,,,-99.99,,2013-02-28 06:42:00,
2013-02-28 01:52:00,31.0,26.0,-100.00,ESE,105,4.0,9.0,80,0.00,,,-99.99,,2013-02-28 06:52:00,
2013-02-28 02:01:00,31.0,25.0,-100.00,East,90,4.0,11.0,78,0.00,,,-99.99,,2013-02-28 07:01:00,
2013-02-28 02:11:00,31.0,25.0,-100.00,East,100,6.0,11.0,75,0.00,,,-99.99,,2013-02-28 07:11:00,
2013-02-28 02:21:00,32.0,25.0,-100.00,East,90,5.0,10.0,75,0.00,,,-99.99,,2013-02-28 07:21:00,
2013-02-28 02:32:00,31.0,25.0,-100.00,NNW,340,0.0,4.0,77,0.00,,,-99.99,,2013-02-28 07:32:00,
2013-02-28 02:42:00,31.0,25.0,-100.00,East,85,1.0,3.0,78,0.00,,,-99.99,,2013-02-28 07:42:00,
2013-02-28 02:51:00,31.0,25.0,-100.00,NNE,20,0.0,4.0,78,0.00,,,-99.99,,2013-02-28 07:51:00,
2013-02-28 03:01:00,31.0,25.0,-100.00,North,5,0.0,2.0,79,0.00,,,-99.99,,2013-02-28 08:01:00,
2013-02-28 03:11:00,31.0,25.0,-100.00,WSW,245,1.0,2.0,79,0.00,,,-99.99,,2013-02-28 08:11:00,
2013-02-28 03:22:00,30.0,25.0,-100.00,West,270,0.0,1.0,79,0.00,,,-99.99,,2013-02-28 08:22:00,
2013-02-28 03:32:00,30.0,25.0,-100.00,West,260,0.0,1.0,79,0.00,,,-99.99,,2013-02-28 08:32:00,
2013-02-28 03:42:00,30.0,25.0,-100.00,South,180,0.0,1.0,79,0.00,,,-99.99,,2013-02-28 08:42:00,
2013-02-28 03:52:00,31.0,25.0,-100.00,NE,35,0.0,1.0,79,0.00,,,-99.99,,2013-02-28 08:52:00,
2013-02-28 04:03:00,31.0,25.0,-100.00,ENE,60,1.0,3.0,77,0.00,,,-99.99,,2013-02-28 09:03:00,
2013-02-28 04:12:00,31.0,25.0,-100.00,NW,315,0.0,2.0,76,0.00,,,-99.99,,2013-02-28 09:12:00,
2013-02-28 04:22:00,31.0,25.0,-100.00,SW,235,1.0,1.0,79,0.00,,,-99.99,,2013-02-28 09:22:00,
2013-02-28 04:32:00,31.0,25.0,-100.00,West,260,0.0,1.0,79,0.00,,,-99.99,,2013-02-28 09:32:00,
2013-02-28 04:42:00,31.0,25.0,-100.00,WSW,245,0.0,1.0,78,0.00,,,-99.99,,2013-02-28 09:42:00,
2013-02-28 04:52:00,31.0,26.0,-100.00,SW,235,1.0,1.0,80,0.00,,,-99.99,,2013-02-28 09:52:00,
2013-02-28 05:02:00,31.0,25.0,-100.00,West,270,0.0,1.0,79,0.00,,,-99.99,,2013-02-28 10:02:00,
2013-02-28 05:11:00,31.0,26.0,-100.00,WNW,285,1.0,1.0,81,0.00,,,-99.99,,2013-02-28 10:11:00,
2013-02-28 05:22:00,31.0,26.0,-100.00,WNW,295,0.0,1.0,82,0.00,,,-99.99,,2013-02-28 10:22:00,
2013-02-28 05:32:00,31.0,26.0,-100.00,SSE,150,1.0,2.0,81,0.00,,,-99.99,,2013-02-28 10:32:00,
2013-02-28 05:42:00,31.0,26.0,-100.00,SSE,165,1.0,2.0,82,0.00,,,-99.99,,2013-02-28 10:42:00,
2013-02-28 05:52:00,31.0,26.0,-100.00,SW,215,0.0,2.0,82,0.00,,,-99.99,,2013-02-28 10:52:00,
2013-02-28 06:02:00,31.0,26.0,-100.00,WSW,255,0.0,1.0,82,0.00,,,-99.99,,2013-02-28 11:02:00,
2013-02-28 06:11:00,31.0,26.0,-100.00,WSW,250,0.0,0.0,83,0.00,,,-99.99,,2013-02-28 11:11:00,
2013-02-28 06:22:00,30.0,26.0,-100.00,WSW,250,0.0,1.0,83,0.00,,,-99.99,,2013-02-28 11:22:00,
2013-02-28 06:32:00,30.0,26.0,-100.00,WSW,245,0.0,0.0,83,0.00,,,-99.99,,2013-02-28 11:32:00,
2013-02-28 06:42:00,30.0,26.0,-100.00,SSW,205,1.0,1.0,83,0.00,,,-99.99,,2013-02-28 11:42:00,
2013-02-28 06:52:00,30.0,26.0,-100.00,SSW,205,1.0,1.0,83,0.00,,,-99.99,,2013-02-28 11:52:00,
2013-02-28 07:02:00,30.0,26.0,-100.00,SSW,205,1.0,1.0,83,0.00,,,-99.99,,2013-02-28 12:02:00,
2013-02-28 07:11:00,31.0,26.0,-100.00,SW,225,1.0,2.0,83,0.00,,,-99.99,,2013-02-28 12:11:00,
2013-02-28 07:22:00,31.0,27.0,-100.00,South,175,1.0,2.0,82,0.00,,,-99.99,,2013-02-28 12:22:00,
2013-02-28 07:32:00,32.0,27.0,-100.00,SW,230,1.0,2.0,81,0.00,,,-99.99,,2013-02-28 12:32:00,
2013-02-28 07:42:00,33.0,27.0,-100.00,SSW,210,1.0,4.0,78,0.00,,,-99.99,,2013-02-28 12:42:00,
2013-02-28 07:52:00,33.0,27.0,-100.00,North,5,1.0,4.0,80,0.00,,,-99.99,,2013-02-28 12:52:00,
2013-02-28 08:02:00,33.0,27.0,-100.00,ESE,110,1.0,2.0,79,0.00,,,-99.99,,2013-02-28 13:02:00,
2013-02-28 08:11:00,33.0,27.0,-100.00,SSE,150,0.0,2.0,79,0.00,,,-99.99,,2013-02-28 13:11:00,
2013-02-28 08:22:00,35.0,27.0,-100.00,West,260,1.0,2.0,74,0.00,,,-99.99,,2013-02-28 13:22:00,
2013-02-28 08:32:00,35.0,27.0,-100.00,WSW,255,1.0,3.0,71,0.00,,,-99.99,,2013-02-28 13:32:00,
2013-02-28 08:42:00,34.0,28.0,-100.00,ESE,105,1.0,3.0,76,0.00,,,-99.99,,2013-02-28 13:42:00,
2013-02-28 08:52:00,34.0,27.0,-100.00,North,0,2.0,3.0,74,0.00,,,-99.99,,2013-02-28 13:52:00,
2013-02-28 09:02:00,35.0,27.0,-100.00,NNW,330,1.0,2.0,71,0.00,,,-99.99,,2013-02-28 14:02:00,
2013-02-28 09:11:00,35.0,27.0,-100.00,NNW,335,2.0,2.0,73,0.00,,,-99.99,,2013-02-28 14:11:00,
2013-02-28 09:22:00,36.0,27.0,-100.00,ESE,115,1.0,4.0,70,0.00,,,-99.99,,2013-02-28 14:22:00,
2013-02-28 09:32:00,36.0,27.0,-100.00,East,85,1.0,2.0,70,0.00,,,-99.99,,2013-02-28 14:32:00,
2013-02-28 09:42:00,36.0,27.0,-100.00,NNE,20,1.0,2.0,68,0.00,,,-99.99,,2013-02-28 14:42:00,
2013-02-28 09:52:00,36.0,27.0,-100.00,ESE,105,2.0,4.0,70,0.00,,,-99.99,,2013-02-28 14:52:00,
2013-02-28 10:02:00,36.0,27.0,-100.00,ESE,105,1.0,4.0,68,0.00,,,-99.99,,2013-02-28 15:02:00,
2013-02-28 10:11:00,36.0,27.0,-100.00,ESE,115,3.0,4.0,70,0.00,,,-99.99,,2013-02-28 15:11:00,
2013-02-28 10:22:00,38.0,27.0,-100.00,SSE,150,1.0,3.0,66,0.00,,,-99.99,,2013-02-28 15:22:00,
2013-02-28 10:32:00,38.0,28.0,-100.00,NNE,30,1.0,4.0,65,0.00,,,-99.99,,2013-02-28 15:32:00,
2013-02-28 10:42:00,39.0,27.0,-100.00,WNW,290,0.0,2.0,63,0.00,,,-99.99,,2013-02-28 15:42:00,
2013-02-28 10:52:00,39.0,27.0,-100.00,WNW,290,0.0,2.0,63,0.00,,,-99.99,,2013-02-28 15:52:00,
2013-02-28 11:02:00,39.0,28.0,-100.00,ENE,75,1.0,2.0,64,0.00,,,-99.99,,2013-02-28 16:02:00,
2013-02-28 11:12:00,39.0,28.0,-100.00,East,85,1.0,3.0,64,0.00,,,-99.99,,2013-02-28 16:12:00,
2013-02-28 11:22:00,39.0,28.0,-100.00,ESE,120,2.0,4.0,64,0.00,,,-99.99,,2013-02-28 16:22:00,
2013-02-28 11:32:00,40.0,28.0,-100.00,East,100,2.0,4.0,61,0.00,,,-99.99,,2013-02-28 16:32:00,
2013-02-28 11:42:00,39.0,28.0,-100.00,ESE,110,2.0,4.0,63,0.00,,,-99.99,,2013-02-28 16:42:00,
2013-02-28 11:52:00,39.0,28.0,-100.00,NNE,15,2.0,3.0,63,0.00,,,-99.99,,2013-02-28 16:52:00,
2013-02-28 12:02:00,40.0,28.0,-100.00,North,5,1.0,3.0,61,0.00,,,-99.99,,2013-02-28 17:02:00,
2013-02-28 12:12:00,40.0,28.0,-100.00,SSE,150,1.0,3.0,60,0.00,,,-99.99,,2013-02-28 17:12:00,
2013-02-28 12:22:00,41.0,28.0,-100.00,SSE,165,1.0,2.0,59,0.00,,,-99.99,,2013-02-28 17:22:00,
2013-02-28 12:32:00,42.0,28.0,-100.00,West,265,0.0,2.0,58,0.00,,,-99.99,,2013-02-28 17:32:00,
2013-02-28 12:42:00,43.0,28.0,-100.00,West,260,0.0,2.0,54,0.00,,,-99.99,,2013-02-28 17:42:00,
2013-02-28 12:52:00,42.0,28.0,-100.00,NW,305,2.0,4.0,57,0.00,,,-99.99,,2013-02-28 17:52:00,
2013-02-28 13:02:00,42.0,28.0,-100.00,NNW,345,1.0,3.0,57,0.00,,,-99.99,,2013-02-28 18:02:00,
2013-02-28 13:11:00,42.0,28.0,-100.00,NNW,345,1.0,2.0,58,0.00,,,-99.99,,2013-02-28 18:11:00,
2013-02-28 13:22:00,41.0,28.0,-100.00,NNW,345,3.0,5.0,59,0.00,,,-99.99,,2013-02-28 18:22:00,
2013-02-28 13:32:00,41.0,28.0,-100.00,North,0,3.0,5.0,60,0.00,,,-99.99,,2013-02-28 18:32:00,
2013-02-28 13:42:00,41.0,28.0,-100.00,NNW,340,4.0,6.0,60,0.00,,,-99.99,,2013-02-28 18:42:00,
2013-02-28 13:52:00,41.0,28.0,-100.00,NW,325,4.0,6.0,59,0.00,,,-99.99,,2013-02-28 18:52:00,
2013-02-28 14:02:00,41.0,28.0,-100.00,NW,315,2.0,5.0,59,0.00,,,-99.99,,2013-02-28 19:02:00,
2013-02-28 14:11:00,41.0,29.0,-100.00,NNW,330,4.0,6.0,60,0.00,,,-99.99,,2013-02-28 19:11:00,
2013-02-28 14:22:00,41.0,28.0,-100.00,North,5,2.0,6.0,59,0.00,,,-99.99,,2013-02-28 19:22:00,
2013-02-28 14:32:00,42.0,28.0,-100.00,WNW,290,1.0,5.0,57,0.00,,,-99.99,,2013-02-28 19:32:00,
2013-02-28 14:42:00,41.0,28.0,-100.00,NNW,340,4.0,6.0,59,0.00,,,-99.99,,2013-02-28 19:42:00,
2013-02-28 14:52:00,42.0,28.0,-100.00,NW,320,2.0,5.0,58,0.00,,,-99.99,,2013-02-28 19:52:00,
2013-02-28 15:01:00,42.0,28.0,-100.00,West,275,2.0,4.0,57,0.00,,,-99.99,,2013-02-28 20:01:00,
2013-02-28 15:12:00,43.0,29.0,-100.00,WNW,285,1.0,3.0,57,0.00,,,-99.99,,2013-02-28 20:12:00,
2013-02-28 15:22:00,42.0,29.0,-100.00,NW,315,1.0,4.0,57,0.00,,,-99.99,,2013-02-28 20:22:00,
2013-02-28 15:32:00,42.0,28.0,-100.00,WNW,295,2.0,5.0,57,0.00,,,-99.99,,2013-02-28 20:32:00,
2013-02-28 15:42:00,42.0,28.0,-100.00,North,350,4.0,6.0,57,0.00,,,-99.99,,2013-02-28 20:42:00,
2013-02-28 15:52:00,42.0,28.0,-100.00,West,260,2.0,6.0,56,0.00,,,-99.99,,2013-02-28 20:52:00,
2013-02-28 16:02:00,42.0,28.0,-100.00,NW,325,3.0,6.0,57,0.00,,,-99.99,,2013-02-28 21:02:00,
2013-02-28 16:11:00,42.0,28.0,-100.00,NW,325,3.0,5.0,57,0.00,,,-99.99,,2013-02-28 21:11:00,
2013-02-28 16:22:00,42.0,28.0,-100.00,NW,325,1.0,4.0,57,0.00,,,-99.99,,2013-02-28 21:22:00,
2013-02-28 16:32:00,42.0,28.0,-100.00,WNW,300,3.0,5.0,57,0.00,,,-99.99,,2013-02-28 21:32:00,
2013-02-28 16:42:00,42.0,28.0,-100.00,NW,310,4.0,6.0,57,0.00,,,-99.99,,2013-02-28 21:42:00,
2013-02-28 16:52:00,42.0,28.0,-100.00,NNW,340,3.0,6.0,58,0.00,,,-99.99,,2013-02-28 21:52:00,
2013-02-28 17:01:00,42.0,28.0,-100.00,NNW,340,3.0,6.0,58,0.00,,,-99.99,,2013-02-28 22:01:00,
2013-02-28 17:11:00,42.0,28.0,-100.00,NNW,340,3.0,6.0,58,0.00,,,-99.99,,2013-02-28 22:11:00,
2013-02-28 17:22:00,42.0,28.0,-100.00,NNW,340,3.0,6.0,58,0.00,,,-99.99,,2013-02-28 22:22:00,
2013-02-28 17:32:00,40.0,29.0,-100.00,NNW,340,5.0,9.0,63,0.00,,,-99.99,,2013-02-28 22:32:00,
2013-02-28 17:42:00,40.0,29.0,-100.00,NNW,330,3.0,6.0,64,0.00,,,-99.99,,2013-02-28 22:42:00,
2013-02-28 17:52:00,40.0,30.0,-100.00,NNW,335,3.0,8.0,66,0.00,,,-99.99,,2013-02-28 22:52:00,
2013-02-28 18:01:00,39.0,29.0,-100.00,NNW,340,7.0,12.0,67,0.00,,,-99.99,,2013-02-28 23:01:00,
2013-02-28 18:11:00,39.0,30.0,-100.00,NNW,340,4.0,9.0,69,0.00,,,-99.99,,2013-02-28 23:11:00,
2013-02-28 18:22:00,39.0,30.0,-100.00,NNW,330,3.0,9.0,70,0.00,,,-99.99,,2013-02-28 23:22:00,
2013-02-28 18:32:00,39.0,30.0,-100.00,NNW,345,6.0,9.0,70,0.00,,,-99.99,,2013-02-28 23:32:00,
2013-02-28 18:42:00,39.0,30.0,-100.00,North,10,4.0,8.0,71,0.00,,,-99.99,,2013-02-28 23:42:00,
2013-02-28 18:52:00,38.0,30.0,-100.00,North,-999,-999.0,-999.0,72,-99.99,,,-99.99,,2013-02-28 23:52:00,
2013-02-28 19:02:00,38.0,31.0,-100.00,NNW,345,2.0,7.0,74,0.00,,,-99.99,,2013-03-01 00:02:00,
2013-02-28 19:11:00,38.0,31.0,-100.00,NNW,340,1.0,6.0,76,0.00,,,-99.99,,2013-03-01 00:11:00,
2013-02-28 19:22:00,37.0,31.0,-100.00,NNW,345,1.0,2.0,78,0.00,,,-99.99,,2013-03-01 00:22:00,
2013-02-28 19:32:00,37.0,32.0,-100.00,North,355,2.0,4.0,81,0.00,,,-99.99,,2013-03-01 00:32:00,
2013-02-28 19:42:00,36.0,32.0,-100.00,NNW,345,1.0,4.0,83,0.00,,,-99.99,,2013-03-01 00:42:00,
2013-02-28 19:51:00,36.0,32.0,-100.00,WNW,300,2.0,5.0,85,0.00,,,-99.99,,2013-03-01 00:51:00,
2013-02-28 20:01:00,35.0,32.0,-100.00,WNW,300,4.0,7.0,87,0.01,,,-99.99,,2013-03-01 01:01:00,
2013-02-28 20:11:00,35.0,32.0,-100.00,NW,320,3.0,6.0,87,0.01,,,-99.99,,2013-03-01 01:11:00,
2013-02-28 20:21:00,35.0,32.0,-100.00,NW,315,4.0,6.0,89,0.00,,,-99.99,,2013-03-01 01:21:00,
2013-02-28 20:32:00,35.0,32.0,-100.00,NW,315,4.0,7.0,89,0.01,,,-99.99,,2013-03-01 01:32:00,
2013-02-28 20:42:00,35.0,32.0,-100.00,NW,325,7.0,9.0,90,0.01,,,-99.99,,2013-03-01 01:42:00,
2013-02-28 20:51:00,34.0,32.0,-100.00,NNW,335,6.0,9.0,90,0.00,,,-99.99,,2013-03-01 01:51:00,
2013-02-28 21:01:00,34.0,32.0,-100.00,NNW,335,4.0,7.0,91,0.00,,,-99.99,,2013-03-01 02:01:00,
2013-02-28 21:11:00,34.0,32.0,-100.00,WNW,300,3.0,7.0,91,0.00,,,-99.99,,2013-03-01 02:11:00,
2013-02-28 21:21:00,34.0,32.0,-100.00,NW,310,2.0,6.0,92,0.00,,,-99.99,,2013-03-01 02:21:00,
2013-02-28 21:32:00,34.0,32.0,-100.00,NNW,330,3.0,7.0,92,0.00,,,-99.99,,2013-03-01 02:32:00,
2013-02-28 21:42:00,34.0,32.0,-100.00,NNW,335,2.0,7.0,92,0.00,,,-99.99,,2013-03-01 02:42:00,
2013-02-28 21:52:00,34.0,32.0,-100.00,NNW,335,2.0,4.0,92,0.00,,,-99.99,,2013-03-01 02:52:00,
2013-02-28 22:02:00,33.0,31.0,-100.00,North,0,1.0,4.0,92,0.00,,,-99.99,,2013-03-01 03:02:00,
2013-02-28 22:11:00,33.0,31.0,-100.00,NNE,25,1.0,2.0,92,0.00,,,-99.99,,2013-03-01 03:11:00,
2013-02-28 22:21:00,33.0,31.0,-100.00,NW,310,2.0,4.0,92,0.00,,,-99.99,,2013-03-01 03:21:00,
2013-02-28 22:32:00,34.0,32.0,-100.00,WNW,295,1.0,4.0,93,0.00,,,-99.99,,2013-03-01 03:32:00,
2013-02-28 22:42:00,33.0,32.0,-100.00,WNW,295,2.0,4.0,93,0.00,,,-99.99,,2013-03-01 03:42:00,
2013-02-28 22:51:00,34.0,32.0,-100.00,North,350,1.0,4.0,93,0.00,,,-99.99,,2013-03-01 03:51:00,
2013-02-28 23:01:00,34.0,32.0,-100.00,NNW,340,2.0,4.0,92,0.00,,,-99.99,,2013-03-01 04:01:00,
2013-02-28 23:11:00,34.0,32.0,-100.00,NW,315,2.0,4.0,92,0.00,,,-99.99,,2013-03-01 04:11:00,
2013-02-28 23:21:00,34.0,32.0,-100.00,NW,320,2.0,4.0,92,0.00,,,-99.99,,2013-03-01 04:21:00,
2013-02-28 23:32:00,33.0,31.0,-100.00,NNW,330,1.0,4.0,92,0.00,,,-99.99,,2013-03-01 04:32:00,
2013-02-28 23:42:00,33.0,31.0,-100.00,NNW,330,2.0,3.0,92,0.00,,,-99.99,,2013-03-01 04:42:00,
2013-02-28 23:52:00,33.0,31.0,-100.00,NW,305,1.0,4.0,92,0.00,,,-99.99,,2013-03-01 04:52:00,